TimeCDT,TemperatureF,Dew PointF,Humidity,Sea Level PressureIn,VisibilityMPH,Wind Direction,Wind SpeedMPH,Gust SpeedMPH,PrecipitationIn,Events,Conditions,WindDirDegrees,DateUTC
12:53 AM,71.1,66.0,84,29.98,10.0,North,5.8,-,N/A,,Clear,10,2012-10-07 05:53:00
1:53 AM,70.0,66.0,87,29.98,10.0,North,5.8,-,N/A,,Clear,360,2012-10-07 06:53:00
2:53 AM,69.1,66.0,90,29.97,10.0,North,4.6,-,N/A,,Clear,10,2012-10-07 07:53:00
3:53 AM,68.0,64.9,90,29.97,10.0,North,9.2,-,N/A,,Clear,10,2012-10-07 08:53:00
4:53 AM,66.9,64.0,90,29.98,10.0,North,13.8,-,N/A,,Clear,360,2012-10-07 09:53:00
5:53 AM,64.9,63.0,93,29.99,10.0,North,11.5,-,N/A,,Clear,360,2012-10-07 10:53:00
6:17 AM,64.4,62.6,94,29.99,10.0,North,10.4,-,N/A,,Partly Cloudy,360,2012-10-07 11:17:00
6:53 AM,64.0,62.1,93,30.00,10.0,North,11.5,-,N/A,,Partly Cloudy,360,2012-10-07 11:53:00
7:20 AM,62.6,60.8,94,30.01,10.0,North,9.2,-,N/A,,Mostly Cloudy,360,2012-10-07 12:20:00
7:53 AM,64.0,62.1,93,30.02,10.0,North,10.4,-,N/A,,Overcast,350,2012-10-07 12:53:00
8:49 AM,64.4,60.8,88,30.03,10.0,North,12.7,-,N/A,,Partly Cloudy,360,2012-10-07 13:49:00
8:53 AM,66.0,61.0,84,30.04,10.0,North,12.7,-,N/A,,Partly Cloudy,350,2012-10-07 13:53:00
9:38 AM,66.2,62.6,88,30.05,10.0,North,13.8,19.6,N/A,,Mostly Cloudy,350,2012-10-07 14:38:00
9:53 AM,68.0,63.0,84,30.05,10.0,North,11.5,-,N/A,,Overcast,350,2012-10-07 14:53:00
10:37 AM,69.8,62.6,78,30.05,10.0,North,11.5,-,N/A,,Scattered Clouds,350,2012-10-07 15:37:00
10:53 AM,71.1,63.0,75,30.05,10.0,North,12.7,-,N/A,,Clear,350,2012-10-07 15:53:00
11:53 AM,73.0,62.1,68,30.04,10.0,North,12.7,-,N/A,,Clear,10,2012-10-07 16:53:00
12:53 PM,75.0,63.0,66,30.02,10.0,North,11.5,-,N/A,,Clear,10,2012-10-07 17:53:00
1:53 PM,77.0,63.0,62,29.99,10.0,NNW,12.7,-,N/A,,Clear,340,2012-10-07 18:53:00
2:53 PM,79.0,64.0,60,29.97,10.0,North,6.9,-,N/A,,Clear,10,2012-10-07 19:53:00
3:53 PM,79.0,64.0,60,29.97,10.0,North,10.4,-,N/A,,Clear,360,2012-10-07 20:53:00
4:53 PM,79.0,64.0,60,29.96,10.0,North,6.9,-,N/A,,Clear,360,2012-10-07 21:53:00
5:53 PM,75.9,64.0,67,29.98,10.0,NNE,5.8,-,N/A,,Clear,30,2012-10-07 22:53:00
6:53 PM,73.9,64.0,71,29.99,10.0,North,8.1,-,N/A,,Scattered Clouds,10,2012-10-07 23:53:00
7:53 PM,72.0,62.1,71,30.01,10.0,NNE,10.4,-,N/A,,Clear,20,2012-10-08 00:53:00
8:53 PM,69.1,60.1,73,30.04,10.0,North,10.4,17.3,N/A,,Clear,360,2012-10-08 01:53:00
9:53 PM,66.9,59.0,76,30.05,10.0,North,16.1,20.7,N/A,,Clear,350,2012-10-08 02:53:00
10:53 PM,64.9,57.0,75,30.05,10.0,North,11.5,-,N/A,,Clear,360,2012-10-08 03:53:00
11:53 PM,63.0,55.9,78,30.04,10.0,North,11.5,-,N/A,,Clear,360,2012-10-08 04:53:00